星链-2001 (STARLINK-2001 )

导读 | 星芒AI

STARLINK-2001 是 SpaceX 为其 Starlink 项目发射的一组卫星任务之一,旨在构建全球宽带互联网网络。该任务于2001年发射,标志着 SpaceX 在低地球轨道部署大规模卫星星座的早期尝试。这些卫星具备先进的通信技术,支持高速、低延迟的互联网服务。STARLINK-2001 为后续 Starlink 卫星群的扩展奠定了基础,推动了 SpaceX 在全球卫星互联网市场的领先地位。

基本信息
目录编号:
47596
目录名称:
STARLINK-2001
国际标识:
2021-009BA
轨道中心:
EARTH
卫星名称:
星链-2001
卫星全名:
星链-2001 (STARLINK-2001 )
卫星状态:
在轨 (已飞行1728 天)
发射日期:
2021-02-04 UTC
国别 :
美国 (US)
星等 :
--
轨道信息
数据来源 国际轨道数据 AOE轨道数据
星历时间 2025-10-28T12:58:00+0800
1天前
查看轨道信息
2025-10-28T18:00:00+0800
1天前
查看轨道信息
半长轴 6925.366km 6925.351km
偏心率 0.0001125 0.000126
轨道倾角 53.055° 53.054°
近地点辐角 98.188° 78.023°
升交点赤经 276.358° 275.414°
平近点角 261.923° 340.077°
近地点 546.451km 546.343km
远地点 548.011km 548.089km
周期 95.592分钟 95.592分钟
每日圈数 15.063946 15.063994
详细信息
固有亮度:
5
最大亮度:
2.5
卫星平台:
Starlink V1.0
覆盖范围:
全球
运营商:
太空探索技术公司
运营商所在国:
美国
制造商(研发单位):
太空探索技术公司
制造商所在国:
美国
使用方式:
暂无
卫星简介
星链(Starlink)计划是由太空探索技术公司(SpaceX)提出的一个巨型低轨卫星互联网星座项目,计划在2019年至2024年间在太空搭建由约1.2万颗卫星组成的“星链”网络,其中1584颗将部署在地球上空550千米处的近地轨道,并从2020年开始工作。该卫星仍在工作。
2D轨道图
3D轨道图
轨道高度分析图
轨道倾角分析图
轨道综合分析图
查看轨道综合分析图